Regional Weather Roundup
Issued by NWS

Home | Current Version | Previous Version | Text Only | Print | Product List | Glossary Off
Versions: 1 2 3 4 5 6 7 8 9 10 11 12 13 14 15 16 17 18 19 20 21 22 23 24 25 26 27 28 29 30 31 32 33 34 35 36 37 38 39 40 41 42 43 44 45 46 47 48 49 50

000
ASUS43 KMKX 261210
RWRWI

WISCONSIN REGIONAL WEATHER ROUNDUP
NATIONAL WEATHER SERVICE MILWAUKEE/SULLIVAN WI
600 AM CST MON JAN 26 2015

NOTE: "FAIR" INDICATES FEW OR NO CLOUDS BELOW 12,000 FEET WITH NO
SIGNIFICANT WEATHER AND/OR OBSTRUCTIONS TO VISIBILITY.

WIZ001-002-006>008-014>016-023>028-261300-
NORTHWEST WISCONSIN

CITY           SKY/WX    TMP DP  RH WIND       PRES   REMARKS
SUPERIOR ARPT  MIX PCPN  22  19  90 SW3       29.72F
6HR MIN TEMP:  19; 6HR MAX TEMP:  22; 6HR PCP:  0.02;

ASHLAND        LGT SNOW  19  15  84 VRB7      29.74F FOG     WCI  10
6HR MIN TEMP:  13; 6HR MAX TEMP:  20; 6HR PCP: TRACE;

HAYWARD        CLOUDY    18  13  80 S7        29.73F HAZE    WCI   9
6HR MIN TEMP:  16; 6HR MAX TEMP:  19; 6HR PCP:  0.02;

SIREN          CLOUDY    22  19  90 S10       29.71F WCI  11
6HR MIN TEMP:  21; 6HR MAX TEMP:  22;

CUMBERLAND     LGT SNOW  19  18  93 SE10      29.73F VSB 1   WCI   8
RICE LAKE      SNOW      20  17  90 SE12      29.77F VSB 1/4 WCI   7
6HR MIN TEMP:  15; 6HR MAX TEMP:  20;

CHETEK         LGT SNOW  19  17  90 SE8       29.78F WCI   9
6HR MIN TEMP:  13; 6HR MAX TEMP:  19; 6HR PCP:  0.01;

LADYSMITH      LGT SNOW  18  15  88 SE8       29.80F WCI   7
6HR MIN TEMP:  15; 6HR MAX TEMP:  19;

EAU CLAIRE     LGT SNOW  20  16  84 SE9       29.80F FOG     WCI   9
6HR MIN TEMP:  16; 6HR MAX TEMP:  21; 6HR PCP:  0.01;

MENOMONIE      SNOW      22  20  92 SE8       29.80F VSB 1/2 WCI  13
6HR MIN TEMP:  18; 6HR MAX TEMP:  22;

NEW RICHMOND   CLOUDY    23  22  96 S10       29.74F WCI  12
6HR MIN TEMP:  19; 6HR MAX TEMP:  23;

OSCEOLA        CLOUDY    24  24  99 SE9       29.77F WCI  14
6HR MIN TEMP:  20; 6HR MAX TEMP:  24;

$$

WIZ003>005-009-010-017-018-261300-
NORTH CENTRAL WISCONSIN

CITY           SKY/WX    TMP DP  RH WIND       PRES   REMARKS
MANITOWISH WTR CLOUDY    12   7  81 S8        29.77F WCI   1
6HR MIN TEMP:   7; 6HR MAX TEMP:  13;

ARBOR VITAE    CLOUDY    17  10  74 S7        29.79F WCI   7
6HR MIN TEMP:  10; 6HR MAX TEMP:  17;

WOODRUFF       CLOUDY    17  10  74 S7        29.79F WCI   7
6HR MIN TEMP:  10; 6HR MAX TEMP:  17;

RHINELANDER    CLOUDY    14   5  67 S10       29.82F WCI   1
6HR MIN TEMP:  10; 6HR MAX TEMP:  14; 6HR PCP: TRACE;

EAGLE RIVER    LGT SNOW  12   7  79 CALM      29.81F
6HR MIN TEMP:   7; 6HR MAX TEMP:  13;

LAND O LAKES   LGT SNOW  13   8  83 S6        29.80F WCI   3
6HR MIN TEMP:   6; 6HR MAX TEMP:  13;

PHILLIPS       CLOUDY    15   8  72 SE9       29.77F WCI   3
6HR MIN TEMP:   9; 6HR MAX TEMP:  15;

TOMAHAWK       CLOUDY    13   7  75 CALM      29.82F
6HR MIN TEMP:   7; 6HR MAX TEMP:  13;

MEDFORD        FLURRIES  14   9  78 S10       29.81F WCI   2
6HR MIN TEMP:   8; 6HR MAX TEMP:  14;

MERRILL        CLOUDY    14   6  72 S6        29.85F WCI   5
6HR MIN TEMP:   6; 6HR MAX TEMP:  15;

$$

WIZ029-030-035-036-043>047-261300-
CENTRAL WISCONSIN

CITY           SKY/WX    TMP DP  RH WIND       PRES   REMARKS
WAUSAU         CLOUDY    14   6  70 SE7       29.86F WCI   4
6HR MIN TEMP:   9; 6HR MAX TEMP:  14;

MOSINEE        CLOUDY    12   9  85 CALM      29.89F
MARSHFIELD     CLOUDY    16   9  74 S9        29.85F WCI   4
6HR MIN TEMP:  10; 6HR MAX TEMP:  16;

STEVENS POINT  CLOUDY    12   8  82 SE3       29.90F
6HR MIN TEMP:   2; 6HR MAX TEMP:  12;

WAUPACA        CLOUDY    16  10  80 CALM      29.93F
6HR MIN TEMP:  11; 6HR MAX TEMP:  16;

WAUTOMA        CLOUDY    13  10  87 CALM      29.94F
6HR MIN TEMP:   7; 6HR MAX TEMP:  13;

WISC RAPIDS    CLOUDY    15   7  70 S7        29.90F WCI   5
6HR MIN TEMP:   8; 6HR MAX TEMP:  15;

CAMP DOUGLAS   CLOUDY    19  15  84 S9        29.88F WCI   8
6HR MIN TEMP:   9; 6HR MAX TEMP:  19;

$$

WIZ011>013-019>022-031-037>040-048>050-261300-
NORTHEAST WISCONSIN

CITY           SKY/WX    TMP DP  RH WIND       PRES   REMARKS
ANTIGO         CLOUDY    12   5  74 S5        29.86F WCI   4
6HR MIN TEMP:   4; 6HR MAX TEMP:  12;

SHAWANO        CLOUDY    14   9  82 CALM      29.94S
6HR MIN TEMP:   9; 6HR MAX TEMP:  14;

OCONTO         CLOUDY    11   9  92 CALM      29.95S
6HR MIN TEMP:   5; 6HR MAX TEMP:  11;

STURGEON BAY   MOCLDY    10   7  85 CALM      29.96F
6HR MIN TEMP:   9; 6HR MAX TEMP:  10;

GREEN BAY      CLOUDY    14  10  84 CALM      29.95F
6HR MIN TEMP:  11; 6HR MAX TEMP:  14;

MANITOWOC      MOCLDY    14  12  92 CALM      29.96F
6HR MIN TEMP:  11; 6HR MAX TEMP:  15;

APPLETON       CLOUDY    14   9  79 VRB3      29.94F
CLINTONVILLE   CLOUDY    14   9  79 CALM      29.93F
OSHKOSH        CLOUDY    15   8  73 CALM      29.94F
6HR MIN TEMP:  11; 6HR MAX TEMP:  15;

$$

WIZ032>034-041-042-053>061-261300-
SOUTHWEST WISCONSIN

CITY           SKY/WX    TMP DP  RH WIND       PRES   REMARKS
LA CROSSE      FLURRIES  23  15  71 S15       29.87F WCI  10
6HR MIN TEMP:  20; 6HR MAX TEMP:  23; 6HR PCP: TRACE;

SPARTA         CLOUDY    20  12  71 S5        29.89F WCI  14
6HR MIN TEMP:  12; 6HR MAX TEMP:  20;

VIROQUA        CLOUDY    19  14  80 S7        29.85F WCI  10
6HR MIN TEMP:  16; 6HR MAX TEMP:  19;

BOSCOBEL       CLOUDY    21  12  68 S6        29.93F WCI  13
6HR MIN TEMP:  13; 6HR MAX TEMP:  21;

PRAIRIE DU CHI CLOUDY    22  13  69 SE5       29.92F WCI  15
6HR MIN TEMP:  16; 6HR MAX TEMP:  22;

PLATTEVILLE    CLOUDY    19  14  82 SE5       29.93F WCI  12
6HR MIN TEMP:  14; 6HR MAX TEMP:  19;

$$

WIZ056-057-062-063-064-067-068-261300-
SOUTH CENTRAL WISCONSIN

CITY           SKY/WX    TMP DP  RH WIND       PRES   REMARKS
REEDSBURG      CLOUDY    17  12  84 CALM      29.91F
6HR MIN TEMP:  11; 6HR MAX TEMP:  17;

BARABOO/DELLS  CLOUDY    16  12  84 S3        29.90F
6HR MIN TEMP:  10; 6HR MAX TEMP:  16;

LONE ROCK      CLOUDY    17  12  80 E5        29.94F WCI  10
6HR MIN TEMP:  11; 6HR MAX TEMP:  17;

MINERAL POINT  CLOUDY    18  14  86 SE5       29.91F WCI  11
MADISON        MOCLDY    16  11  80 CALM      29.94F
6HR MIN TEMP:  10; 6HR MAX TEMP:  16;

MIDDLETON      MOCLDY    18  12  77 CALM      29.94S
6HR MIN TEMP:  12; 6HR MAX TEMP:  18;

WATERTOWN      MOCLDY    13  10  90 CALM      29.93F
6HR MIN TEMP:  10; 6HR MAX TEMP:  14;

MONROE         CLOUDY    18  14  86 CALM      29.93S
JANESVILLE     MOCLDY    16  10  79 CALM      29.94F
$$

WIZ051-052-058>065-066-070>072-261300-
SOUTHEAST WISCONSIN

CITY           SKY/WX    TMP DP  RH WIND       PRES   REMARKS
MILWAUKEE      CLOUDY    18  11  74 CALM      29.95S
6HR MIN TEMP:  17; 6HR MAX TEMP:  23;

WAUKESHA       PTCLDY    10   9  92 CALM      29.95F
MILWAUKEE/TIMM CLOUDY    14  10  85 CALM      29.96S
RACINE         MOCLDY    17  12  80 CALM      29.97F
6HR MIN TEMP:  17; 6HR MAX TEMP:  24;

BURLINGTON     MOCLDY    10   8  90 CALM      29.95F
6HR MIN TEMP:   8; 6HR MAX TEMP:  15;

KENOSHA        MOCLDY    15  12  88 W5        29.95F WCI   8
6HR MIN TEMP:  14; 6HR MAX TEMP:  20;

FOND DU LAC    MOCLDY    13   8  81 CALM      29.94F
6HR MIN TEMP:  10; 6HR MAX TEMP:  15; 6HR PCP: TRACE;

SHEBOYGAN      MOCLDY    13   9  84 CALM      29.95S
6HR MIN TEMP:  10; 6HR MAX TEMP:  14;

WEST BEND      MOCLDY    14  10  85 CALM      29.94S
JUNEAU         MOCLDY    13   9  83 CALM      29.94F
6HR MIN TEMP:  11; 6HR MAX TEMP:  13;

$$

LSZ147-162-261300-
LAKE SUPERIOR

STATION/POSITION TIME  TEMP    WIND        PRES    WAVE
                       AIR SEA DIR/SP/G            HT/PER
                 (UTC) (F)     (DEG/KT/KT) (MB)    (FT/S)
DEVILS ISLAND    1200   20     170/ 15/ 21 1008.1F
PORT WING        1100   21     170/  9/ 17 1007.5F
SAXON HARBOR     1100   20     190/  6/ 12 1009.8F
$$

LMZ867-665-643>646-261300-
LAKE MICHIGAN

STATION/POSITION TIME  TEMP    WIND        PRES    WAVE



USA.gov is the U.S. government's official web portal to all federal, state and local government web resources and services.